Beatrice, NE

4:36 AM CDT on July 27, 2017 (GMT -0500)
Beatrice Municipal

Weather History for KBIE - January, 2005

Change the Weather History Date:

Saturday, January 1, 2005

  Actual Average Record
Temperature  
Mean Temperature 47 °F -  
Max Temperature 64 °F 31 °F 64 °F (2005)
Min Temperature 28 °F 12 °F -16 °F (1974)
Degree Days  
Heating Degree Days 18    
Moisture  
Dew Point 33 °F    
Average Humidity 72    
Maximum Humidity 93    
Minimum Humidity 48    
Precipitation  
Precipitation 0.00 in - - ()
Sea Level Pressure  
Sea Level Pressure 30.02 in    
Wind  
Wind Speed 14 mph (ESE)    
Max Wind Speed 21 mph    
Max Gust Speed 30 mph    
Visibility 9 miles    
Events      
Averages and records for this station are not official NWS values.
T = Trace of Precipitation, MM = Missing Value Source: NWS Daily Summary

Daily Weather History Graph

Daily Weather History Graph

Search for Another Location

Airport or City:

Trip Planner

Search our weather history database for the weather conditions in past years. The results will help you decide how hot, cold, wet, or windy it might be!

Date:

Astronomy

Jan. 01, 2005 Rise Set
Actual Time 7:49 AM CST 5:11 PM CST
Civil Twilight 7:19 AM CST 5:42 PM CST
Nautical Twilight 6:45 AM CST 6:16 PM CST
Astronomical Twilight 6:12 AM CST 6:49 PM CST
Moon 11:05 PM CST (1/1) 11:28 AM CST (1/1)
Length of Visible Light 10h 23m
Length of Day
9h 21m
Waning Gibbous, 69% of the Moon is Illuminated
Jan 1
Waning Gibbous
Jan 3
Last Quarter
Jan 10
New
Jan 17
First Quarter
Jan 25
Full

Hourly Weather History & Observations

Time (CST) Temp. Windchill Dew Point Humidity Pressure Visibility Wind Dir Wind Speed Gust Speed Precip Events Conditions
12:32 AM 30.2 °F 18.9 °F 15.8 °F 55% 30.14 in 10.0 mi ENE 16.1 mph 20.7 mph N/A   Overcast
1:13 AM 32.0 °F 22.5 °F 15.8 °F 51% 30.13 in 10.0 mi ENE 12.7 mph 16.1 mph N/A   Overcast
2:10 AM 32.0 °F 22.5 °F 15.8 °F 51% 30.12 in 10.0 mi East 12.7 mph 18.4 mph N/A   Overcast
2:30 AM 33.8 °F 25.3 °F 15.8 °F 48% 30.12 in 10.0 mi East 11.5 mph 18.4 mph N/A   Overcast
2:52 AM 33.8 °F 25.3 °F 15.8 °F 48% 30.13 in 10.0 mi East 11.5 mph 17.3 mph N/A   Overcast
3:12 AM 33.8 °F 25.3 °F 17.6 °F 52% 30.12 in 10.0 mi East 11.5 mph 17.3 mph N/A   Overcast
4:12 AM 33.8 °F 24.3 °F 17.6 °F 52% 30.09 in 10.0 mi East 13.8 mph - N/A   Overcast
4:34 AM 35.6 °F 25.9 °F 17.6 °F 48% 30.07 in 10.0 mi East 16.1 mph 24.2 mph N/A   Overcast
4:51 AM 35.6 °F 26.6 °F 19.4 °F 52% 30.07 in 10.0 mi East 13.8 mph - N/A   Overcast
5:10 AM 35.6 °F 26.6 °F 19.4 °F 52% 30.06 in 10.0 mi East 13.8 mph - N/A   Overcast
5:31 AM 35.6 °F 26.6 °F 19.4 °F 52% 30.05 in 10.0 mi East 13.8 mph 21.9 mph N/A   Overcast
5:52 AM 35.6 °F 26.2 °F 19.4 °F 52% 30.05 in 10.0 mi East 15.0 mph - N/A   Overcast
6:13 AM 35.6 °F 27.1 °F 21.2 °F 56% 30.04 in 10.0 mi East 12.7 mph 18.4 mph N/A   Overcast
6:31 AM 35.6 °F 27.5 °F 21.2 °F 56% 30.04 in 10.0 mi East 11.5 mph 17.3 mph N/A   Overcast
6:51 AM 37.4 °F 29.3 °F 21.2 °F 52% 30.04 in 10.0 mi ESE 12.7 mph 17.3 mph N/A   Overcast
7:13 AM 37.4 °F 29.8 °F 23.0 °F 56% 30.04 in 10.0 mi ESE 11.5 mph 16.1 mph N/A   Overcast
7:33 AM 37.4 °F 29.8 °F 24.8 °F 60% 30.04 in 10.0 mi ESE 11.5 mph 16.1 mph N/A   Overcast
8:12 AM 37.4 °F 29.8 °F 28.4 °F 70% 30.03 in 10.0 mi ESE 11.5 mph 18.4 mph N/A   Overcast
8:30 AM 37.4 °F 29.8 °F 28.4 °F 70% 30.03 in 10.0 mi ESE 11.5 mph 16.1 mph N/A   Overcast
9:10 AM 39.2 °F 32.0 °F 33.8 °F 81% 30.02 in 7.0 mi ESE 11.5 mph 18.4 mph N/A   Overcast
9:31 AM 39.2 °F 31.6 °F 33.8 °F 81% 30.02 in 7.0 mi ESE 12.7 mph 18.4 mph N/A   Overcast
10:10 AM 41.0 °F 34.7 °F 37.4 °F 87% 30.02 in 5.0 mi SE 10.4 mph 17.3 mph N/A   Haze
10:30 AM 42.8 °F 36.6 °F 37.4 °F 81% 30.02 in 5.0 mi ESE 11.5 mph - N/A   Haze
10:50 AM 42.8 °F 35.8 °F 37.4 °F 81% 30.00 in 5.0 mi ESE 13.8 mph - N/A   Haze
11:10 AM 44.6 °F 38.1 °F 37.4 °F 76% 29.99 in 5.0 mi ESE 13.8 mph 18.4 mph N/A   Haze
11:31 AM 44.6 °F 38.4 °F 39.2 °F 81% 29.97 in 5.0 mi ESE 12.7 mph 18.4 mph N/A   Haze
11:50 AM 46.4 °F 40.4 °F 41.0 °F 81% 29.96 in 5.0 mi SE 13.8 mph 19.6 mph N/A   Haze
12:13 PM 46.4 °F 41.5 °F 42.8 °F 87% 29.94 in 5.0 mi SE 10.4 mph 17.3 mph N/A   Haze
12:30 PM 48.2 °F - 42.8 °F 82% 29.93 in 5.0 mi SE 11.5 mph - N/A   Haze
12:50 PM 51.8 °F - 46.4 °F 82% 29.91 in 5.0 mi SE 10.4 mph - N/A   Haze
1:10 PM 53.6 °F - 48.2 °F 82% 29.89 in 5.0 mi SE 16.1 mph 20.7 mph N/A   Haze
1:32 PM 55.4 °F - 50.0 °F 82% 29.88 in 7.0 mi SE 11.5 mph - N/A   Overcast
1:53 PM 57.2 °F - 51.8 °F 82% 29.89 in 7.0 mi SSE 10.4 mph - N/A   Overcast
2:12 PM 59.0 °F - 51.8 °F 77% 29.88 in 7.0 mi SSE 10.4 mph - N/A   Overcast
2:32 PM 62.6 °F - 53.6 °F 72% 29.88 in 10.0 mi South 18.4 mph - N/A   Overcast
2:52 PM 64.4 °F - 55.4 °F 73% 29.87 in 10.0 mi South 20.7 mph 29.9 mph N/A   Overcast
3:52 PM 62.6 °F - 55.4 °F 77% 29.88 in 10.0 mi South 19.6 mph 27.6 mph N/A   Overcast
4:14 PM 62.6 °F - 53.6 °F 72% 29.89 in 10.0 mi SSW 19.6 mph 25.3 mph N/A   Overcast
4:33 PM 62.6 °F - 53.6 °F 72% 29.89 in 10.0 mi South 17.3 mph - N/A   Mostly Cloudy
4:50 PM 62.6 °F - 53.6 °F 72% 29.89 in 10.0 mi SSW 18.4 mph 23.0 mph N/A   Mostly Cloudy
5:10 PM 62.6 °F - 53.6 °F 72% 29.90 in 10.0 mi South 9.2 mph - N/A   Overcast
6:13 PM 41.0 °F 31.6 °F 35.6 °F 81% 29.97 in 7.0 mi NW 20.7 mph 29.9 mph N/A   Overcast
6:30 PM 37.4 °F 28.2 °F 33.8 °F 87% 29.99 in 7.0 mi NNW 16.1 mph 23.0 mph N/A   Overcast
6:50 PM 35.6 °F 25.5 °F 32.0 °F 87% 30.00 in 10.0 mi NNW 17.3 mph - N/A   Mostly Cloudy
7:12 PM 35.6 °F 25.9 °F 32.0 °F 87% 30.03 in 10.0 mi NNW 16.1 mph - N/A   Overcast
7:30 PM 35.6 °F 25.2 °F 32.0 °F 87% 30.04 in 10.0 mi NNW 18.4 mph - N/A   Overcast
7:50 PM 33.8 °F 22.5 °F 30.2 °F 87% 30.06 in 7.0 mi NNW 19.6 mph - N/A   Overcast
8:10 PM 33.8 °F 23.2 °F 32.0 °F 93% 30.08 in 7.0 mi NNW 17.3 mph - N/A   Overcast
8:30 PM 33.8 °F 23.5 °F 30.2 °F 87% 30.09 in 10.0 mi NNW 16.1 mph - N/A   Overcast
8:52 PM 33.8 °F 24.8 °F 30.2 °F 87% 30.10 in 10.0 mi NNW 12.7 mph - N/A   Overcast
9:12 PM 33.8 °F 23.9 °F 28.4 °F 81% 30.11 in 10.0 mi NNW 15.0 mph - N/A   Overcast
9:32 PM 33.8 °F 22.2 °F 28.4 °F 81% 30.12 in 10.0 mi NNW 20.7 mph - N/A   Overcast
10:12 PM 32.0 °F 21.6 °F 26.6 °F 80% 30.14 in 10.0 mi NNW 15.0 mph - N/A   Overcast
10:52 PM 30.2 °F 19.8 °F 24.8 °F 80% 30.16 in 10.0 mi NNW 13.8 mph - N/A   Overcast
11:33 PM 28.4 °F 17.5 °F 23.0 °F 80% 30.17 in 10.0 mi North 13.8 mph - N/A   Overcast